Северный

Россия / Свердловская область     60°58′56″N   60°23′32″E
темп.,
°C
ветер,
м/с
пор.,
м/с
влажн.,
%
обл.,
%
осадки,
мм/ч
давл.,
гПа
погр.,
м
11 апреля, вс
вс1123:00+1ююв2898100 0.1 1033214
02:00+1юв1599100 1.9 1030252
05:00+1юв14100100 6.6 1028169
08:00+1ю25100100 1.4 1026177
11:00+3юз1399100 1.4 1025112
14:00+5ююз2895100 0.0 1024414
17:00+5зюз31093100 0.0 1025677
20:00+4зюз39886 0.0 1026387
12 апреля, пн
пн1223:000юз28915 0.0 1028129
02:00+1юз25935 0.0 1029121
05:00−2зюз27934 0.0 1031117
08:00+2зюз411782 0.0 10311033
11:00+5з512640 0.0 10321332
14:00+7з510510 0.0 10341415
17:00+6з513641 0.0 10351696
20:00+2зюз388274 0.0 1036186
13 апреля, вт
вт1323:000зюз210895 0.0 1037173
02:00−1зюз249050 0.0 103762
05:00−1зюз2587100 0.0 103793
08:00+4зюз41366100 0.0 1036624
11:00+7зюз51359100 0.0 1034675
14:00+10зюз410548 0.0 1033828
17:00+10юз41053100 0.0 1032848
20:00+5юз2868100 0.0 1030153
14 апреля, ср
ср1423:00+5юз21075100 0.0 1028257
02:00+7з51777100 0.0 1025627
05:00+7зюз51387100 0.0 1024439
08:00+8юз3988100 0.0 1025441
11:00+9юз4985100 0.0 1025526
14:00+12зюз5117795 0.0 1024666
17:00+13з4117451 0.0 1022882
20:00+10зюз3108090 0.0 1021328
15 апреля, чт
чт1523:00+8юз311815 0.0 1019333
02:00+8зюз4117877 0.0 1017366
05:00+8зюз31176100 0.0 1015365
08:00+10з41176100 0.0 1015628
11:00+9зсз3581100 0.0 1016789
14:00+6сз2682100 0.1 1018478
17:00+5ссз2587100 0.3 1019664
20:00+3с2596100 0.9 1019581